Location: LDNL
(36.4545°S, 141.6685°E)
Time: 11:15:25
(UTC+10:00)

Tiros 1 despin weight - Pass Details

Date: 09 August 2022
Orbit: 590 x 639 km, 48.2° (Epoch: 23 September)

Event Time Altitude Azimuth Distance (km) Brightness Sun altitude
Rises 07:09:51 0° 233° (SW) 2,966 - -3.4°
Exits shadow 07:10:23 - 232° (SW) 2,760 ? -3.3°
Reaches altitude 10° 07:12:16 10° 227° (SW) 2,053 ? -2.9°
Maximum altitude 07:16:53 49° 151° (SSE) 834 ? -2.1°
Drops below altitude 10° 07:21:25 10° 76° (ENE) 2,027 ? -1.2°
Sets 07:23:48 0° 70° (ENE) 2,925 ? -0.7°
